Weather reports worldwide

Advertisment
St. Mary's, United Kingdom (3803): temperature & dewpoint: 19.01.2017 01:00:00 - 25.01.2017 01:00:00 (GMT)St. Mary's, United Kingdom (3803): temperature -20cm: 19.01.2017 01:00:00 - 25.01.2017 01:00:00 (GMT)St. Mary's, United Kingdom (3803): wind speed & gusts: 19.01.2017 01:00:00 - 25.01.2017 01:00:00 (GMT)St. Mary's, United Kingdom (3803): wind direction: 19.01.2017 01:00:00 - 25.01.2017 01:00:00 (GMT)St. Mary's, United Kingdom (3803): reduced air pressure: 19.01.2017 01:00:00 - 25.01.2017 01:00:00 (GMT)St. Mary's, United Kingdom (3803): visibility: 19.01.2017 01:00:00 - 25.01.2017 01:00:00 (GMT)St. Mary's, United Kingdom (3803): precipitation: 19.01.2017 01:00:00 - 25.01.2017 01:00:00 (GMT)
Date & Time tt [°C] td [°C] tt -20cm [°C] ff [km/h] ff [kn] fx [km/h] fx [kn] dd ppp [hPa] vv [km] rr [mm]
25.01.2017 01:00:00 9,4 6,0 - 42 23 54 29 S 1024,6 45 0,0
25.01.2017 00:00:00 9,5 5,8 - 42 23 55 30 S 1024,8 35 0,0
24.01.2017 23:00:00 9,6 6,1 - 42 23 54 29 S 1025,1 25 0,0
24.01.2017 22:00:00 9,8 6,0 - 41 22 52 28 S 1025,3 30 0,0
24.01.2017 21:00:00 10,0 6,1 - 41 22 50 27 S 1025,7 27 0,0
24.01.2017 20:00:00 10,0 6,3 - 41 22 48 26 S 1025,9 29 0,0
24.01.2017 19:00:00 10,1 6,2 - 39 21 46 25 S 1025,8 30 0,0
24.01.2017 18:00:00 10,2 6,9 - 39 21 48 26 S 1025,9 28 0,0
24.01.2017 17:00:00 10,2 6,1 - 41 22 48 26 SSW 1025,8 2,0 0,0
24.01.2017 16:00:00 10,7 6,7 - 46 25 50 27 SSW 1025,7 10 0,0
24.01.2017 15:00:00 10,5 6,9 - 42 23 50 27 SSW 1025,7 10 0,0
24.01.2017 14:00:00 10,6 6,6 - 41 22 52 28 SSW 1025,9 10 0,0
24.01.2017 13:00:00 10,6 6,7 - 29 16 48 26 SSW 1026,5 10 0,0
24.01.2017 12:00:00 10,8 6,8 - 41 22 50 27 SSW 1026,7 10 0,0
24.01.2017 11:00:00 10,6 6,7 - 37 20 48 26 SSW 1027,0 10 0,0
24.01.2017 10:00:00 10,4 6,6 - 34 18 48 26 SSW 1026,8 10 0,0
24.01.2017 09:00:00 10,2 6,5 7,2 34 18 - - SSW 1026,5 10 0,0
24.01.2017 08:00:00 9,8 6,3 - 34 18 - - SSW 1026,0 10 0,0
24.01.2017 07:00:00 9,8 6,2 - 34 18 - - SSW 1025,6 35 0,0
24.01.2017 06:00:00 9,7 6,4 - 29 16 - - SSW 1025,7 45 0,0
24.01.2017 05:00:00 9,8 6,3 - 31 17 - - SSW 1025,7 45 0,0
24.01.2017 04:00:00 9,8 6,1 - 31 17 - - SSW 1025,8 50 0,0
24.01.2017 03:00:00 9,7 6,2 - 31 17 - - SSW 1025,9 35 0,0
24.01.2017 02:00:00 9,8 5,5 - 31 17 - - SSW 1026,1 50 0,0
24.01.2017 01:00:00 9,7 5,4 - 28 15 - - SSW 1026,3 40 0,0
24.01.2017 00:00:00 9,8 5,2 - 31 17 - - SSW 1026,4 50 0,0
23.01.2017 23:00:00 9,8 4,9 - 31 17 - - SSW 1026,3 45 0,0
23.01.2017 22:00:00 9,7 5,4 - 29 16 - - SSW 1026,4 45 0,0
23.01.2017 21:00:00 9,7 6,0 - 34 18 - - SSW 1026,3 30 0,0
23.01.2017 20:00:00 9,6 5,9 - 31 17 - - SSW 1026,4 40 0,0
23.01.2017 19:00:00 9,3 5,0 - 26 14 - - SSW 1026,6 35 0,0
23.01.2017 18:00:00 9,2 5,0 - 26 14 - - SSW 1026,6 30 0,0
23.01.2017 17:00:00 9,4 5,0 - 22 12 - - SSW 1026,5 10 0,0
23.01.2017 16:00:00 10,1 5,5 - 24 13 - - SSW 1026,3 10 0,0
23.01.2017 15:00:00 10,5 5,0 - 22 12 - - S 1026,4 10 0,0
23.01.2017 14:00:00 10,8 5,2 - 18 10 - - S 1026,5 10 0,0
23.01.2017 13:00:00 11,1 5,3 - 16 9 - - S 1027,0 10 0,0
23.01.2017 12:00:00 10,7 4,4 - 16 9 - - S 1027,5 10 0,0
23.01.2017 11:00:00 10,2 4,2 - 13 7 - - SSE 1027,9 10 0,0
23.01.2017 10:00:00 9,3 4,7 - 13 7 - - SSE 1027,6 40 0,0
23.01.2017 09:00:00 7,8 4,3 6,7 13 7 - - SSE 1027,5 10 0,0
23.01.2017 08:00:00 8,1 5,2 - 18 10 - - SSE 1027,1 10 0,0
23.01.2017 07:00:00 8,4 4,7 - 13 7 - - SE 1026,9 45 0,0
23.01.2017 06:00:00 8,2 4,8 - 9 5 - - SE 1026,8 45 0,0
23.01.2017 05:00:00 8,0 4,8 - 4 2 - - SSE 1026,6 40 0,0
23.01.2017 04:00:00 7,7 4,4 - 8 4 - - S 1026,6 45 0,0
23.01.2017 03:00:00 8,0 4,4 - 9 5 - - SSE 1026,5 50 0,0
23.01.2017 02:00:00 8,1 3,7 - 4 2 - - SSE 1026,9 50 0,0
23.01.2017 01:00:00 8,1 3,4 - 5 3 - - SE 1027,1 50 0,0
23.01.2017 00:00:00 8,2 3,4 - 8 4 - - SE 1027,1 45 0,0
22.01.2017 23:00:00 8,3 3,1 - 5 3 - - ESE 1026,9 50 0,0
22.01.2017 22:00:00 8,6 2,6 - 8 4 - - SE 1026,6 45 0,0
22.01.2017 21:00:00 8,3 3,0 - 11 6 - - SSE 1026,3 50 0,0
22.01.2017 20:00:00 8,6 2,7 - 11 6 - - SE 1026,1 50 0,0
22.01.2017 19:00:00 8,2 2,7 - 9 5 - - ESE 1025,6 50 0,0
22.01.2017 18:00:00 8,4 3,3 - 5 3 - - SE 1025,1 45 0,0
22.01.2017 17:00:00 8,7 2,7 - 5 3 - - SSE 1024,7 40 0,0
22.01.2017 16:00:00 10,2 3,2 - 5 3 - - SSW 1024,3 50 0,0
22.01.2017 15:00:00 10,2 3,0 - 9 5 - - SSW 1024,0 40 0,0
22.01.2017 14:00:00 10,3 2,9 - 13 7 - - SSW 1023,9 45 0,0
22.01.2017 13:00:00 10,5 2,2 - 13 7 - - SSW 1024,1 45 0,0
22.01.2017 12:00:00 10,4 2,7 - 15 8 - - S 1024,4 35 0,0
22.01.2017 11:00:00 9,3 2,4 - 15 8 - - SSW 1024,4 45 0,0
22.01.2017 10:00:00 8,9 1,6 - 15 8 - - SSW 1024,0 35 0,0
22.01.2017 09:00:00 7,2 1,7 7,2 15 8 - - SSW 1023,3 40 0,0
22.01.2017 08:00:00 7,2 1,9 - 16 9 - - SSW 1022,8 50 0,0
22.01.2017 07:00:00 8,0 2,3 - 24 13 - - SSW 1022,2 45 0,0
22.01.2017 06:00:00 8,1 3,1 - 28 15 - - SSW 1022,2 40 0,0
22.01.2017 05:00:00 6,9 4,1 - 13 7 - - SW 1022,1 50 0,4
22.01.2017 04:00:00 6,5 4,2 - 22 12 - - WSW 1022,3 6 0,2
22.01.2017 03:00:00 7,6 2,6 - 22 12 - - SSW 1022,0 40 0,0
22.01.2017 02:00:00 6,8 3,4 - 21 11 - - SSW 1022,0 35 0,0
22.01.2017 01:00:00 5,9 3,6 - 15 8 - - WSW 1022,2 45 0,0
22.01.2017 00:00:00 6,1 5,0 - 15 8 - - SSW 1022,3 17 0,4
21.01.2017 23:00:00 5,9 4,2 - 16 9 - - W 1022,5 7 1,2
21.01.2017 22:00:00 7,0 4,2 - 9 5 - - S 1022,7 40 0,0
21.01.2017 21:00:00 6,5 3,9 - 16 9 - - S 1022,9 45 0,2
21.01.2017 20:00:00 6,7 4,6 - 28 15 - - S 1022,8 35 1,0
21.01.2017 19:00:00 7,0 3,2 - 18 10 - - S 1022,6 20 0,0
21.01.2017 18:00:00 6,6 3,6 - 21 11 - - ESE 1022,8 10 0,0
21.01.2017 17:00:00 6,6 2,9 - 21 11 - - SE 1022,9 13 0,0
21.01.2017 16:00:00 6,4 2,6 - 18 10 - - SE 1022,8 12 0,0
21.01.2017 15:00:00 6,6 2,5 - 18 10 - - SE 1023,0 14 0,0
21.01.2017 14:00:00 6,7 2,1 - 18 10 - - SE 1023,4 15 0,0
21.01.2017 13:00:00 6,7 0,9 - 11 6 - - SE 1023,9 30 0,0
21.01.2017 12:00:00 6,3 0,3 - 5 3 - - SSE 1024,7 10 0,0
21.01.2017 11:00:00 5,9 0,3 - 8 4 - - SSE 1025,3 10 0,0
21.01.2017 10:00:00 5,6 0,4 - 11 6 - - SSE 1025,4 10 0,0
21.01.2017 09:00:00 5,5 -0,5 7,2 21 11 - - SSE 1025,2 10 0,0
21.01.2017 08:00:00 5,3 -1,4 - 8 4 - - S 1024,8 28 0,0
21.01.2017 07:00:00 5,4 0,2 - 13 7 - - SSE 1025,0 19 0,0
21.01.2017 06:00:00 4,8 -0,2 - 16 9 - - SE 1025,1 20 0,0
21.01.2017 05:00:00 5,1 -0,1 - 18 10 - - SE 1025,4 20 0,0
21.01.2017 04:00:00 5,5 -0,2 - 24 13 - - SE 1025,7 19 0,0
21.01.2017 03:00:00 5,6 0,6 - 22 12 - - SE 1025,9 22 0,0
21.01.2017 02:00:00 6,1 1,0 - 28 15 - - ESE 1026,0 27 0,0
21.01.2017 01:00:00 6,8 2,4 - 24 13 - - ESE 1026,2 23 0,0
21.01.2017 00:00:00 6,6 2,4 - 28 15 - - ENE 1026,4 24 0,0
20.01.2017 23:00:00 6,5 2,2 - 26 14 - - ENE 1026,9 18 0,0
20.01.2017 22:00:00 6,5 2,2 - 31 17 46 25 ENE 1027,2 18 0,0
20.01.2017 21:00:00 6,7 2,8 - 35 19 46 25 ENE 1027,5 30 0,0
20.01.2017 20:00:00 6,9 2,9 - 35 19 - - ENE 1027,7 28 0,0
20.01.2017 19:00:00 6,8 3,4 - 34 18 - - ENE 1027,8 21 0,0
20.01.2017 18:00:00 7,3 3,8 - 31 17 - - E 1027,8 27 0,0
20.01.2017 17:00:00 7,7 1,2 - 21 11 - - E 1027,9 10 0,0
20.01.2017 16:00:00 7,8 2,1 - 22 12 - - ESE 1028,1 10 0,0
20.01.2017 15:00:00 7,7 0,9 - 22 12 - - ESE 1028,3 10 0,0
20.01.2017 14:00:00 7,8 2,5 - 21 11 - - SE 1028,8 10 0,0
20.01.2017 13:00:00 7,3 2,1 - 26 14 - - ESE 1029,5 10 0,0
20.01.2017 12:00:00 7,0 2,0 - 28 15 - - ESE 1030,2 10 0,0
20.01.2017 11:00:00 7,0 1,7 - 29 16 - - ESE 1030,6 10 0,0
20.01.2017 10:00:00 6,8 2,0 - 31 17 - - ESE 1030,7 10 0,0
20.01.2017 09:00:00 6,9 2,1 7,2 34 18 - - ESE 1030,4 10 0,0
20.01.2017 08:00:00 7,4 2,7 - 31 17 - - ESE 1030,1 10 0,0
20.01.2017 07:00:00 7,3 2,4 - 31 17 - - E 1030,1 18 0,0
20.01.2017 06:00:00 7,6 2,6 - 31 17 - - E 1030,3 18 0,0
20.01.2017 05:00:00 8,1 2,3 - 31 17 - - E 1030,5 22 0,0
20.01.2017 04:00:00 8,2 2,8 - 37 20 48 26 E 1030,6 19 0,0
20.01.2017 03:00:00 8,3 3,5 - 35 19 46 25 E 1031,0 21 0,0
20.01.2017 02:00:00 8,3 3,5 - 34 18 - - E 1031,4 24 0,0
20.01.2017 01:00:00 8,0 3,4 - 34 18 50 27 E 1031,8 18 0,0
20.01.2017 00:00:00 7,6 3,4 - 29 16 48 26 E 1032,3 20 0,0
19.01.2017 23:00:00 7,7 2,5 - 31 17 - - E 1032,5 20 0,0
19.01.2017 22:00:00 7,3 1,7 - 34 18 - - E 1032,6 28 0,0
19.01.2017 21:00:00 7,0 1,1 - 31 17 - - E 1032,6 35 0,0
19.01.2017 20:00:00 7,0 -0,8 - 28 15 - - ENE 1032,9 45 0,0
19.01.2017 19:00:00 7,2 -1,8 - 28 15 - - ENE 1032,8 45 0,0
19.01.2017 18:00:00 7,2 -2,0 - 28 15 - - ENE 1032,7 50 0,0
19.01.2017 17:00:00 7,3 -1,1 - 28 15 - - E 1032,9 10 0,0
19.01.2017 16:00:00 8,1 -0,7 - 26 14 - - ENE 1033,3 10 0,0
19.01.2017 15:00:00 8,3 -1,1 - 28 15 - - ENE 1033,2 10 0,0
19.01.2017 14:00:00 8,2 -0,7 - 18 10 - - ENE 1034,0 10 0,0
19.01.2017 13:00:00 8,3 -0,1 - 21 11 - - ENE 1034,6 10 0,0
19.01.2017 12:00:00 8,0 0,3 - 21 11 - - ENE 1035,2 10 0,0
19.01.2017 11:00:00 7,9 0,4 - 21 11 - - E 1035,4 10 0,0
19.01.2017 10:00:00 7,6 1,5 - 24 13 - - E 1035,6 10 0,0
19.01.2017 09:00:00 7,1 1,6 7,7 28 15 - - E 1035,6 10 0,0
19.01.2017 08:00:00 6,9 2,3 - 26 14 - - E 1035,2 45 0,0
19.01.2017 07:00:00 6,8 3,1 - 24 13 - - E 1034,9 30 0,0
19.01.2017 06:00:00 6,9 3,0 - 24 13 - - E 1035,0 35 0,0
19.01.2017 05:00:00 6,7 2,7 - 24 13 - - E 1035,1 40 0,0
19.01.2017 04:00:00 6,6 2,7 - 21 11 - - E 1035,5 35 0,0
19.01.2017 03:00:00 6,8 2,3 - 22 12 - - E 1035,7 45 0,0
19.01.2017 02:00:00 6,5 2,3 - 21 11 - - E 1035,8 45 0,0
19.01.2017 01:00:00 6,8 1,4 - 21 11 - - E 1035,9 50 0,0

tt = temperature
td = dewpoint
tt -20cm = temperature -20cm
ff = wind speed
fx = gusts
dd = wind direction
ppp = reduced air pressure
vv = visibility
rr = precipitation

Next stations